User: anonymous   Login
Location: Unspecified
(0.0000°N, 0.0000°E)
Time: 14:46:27
(UTC+00:00)
Language:

OAO 1 - Orbit

View from above orbital plane
View from above orbital plane
View from above satellite
View from above satellite

Ground track
Ground track

The orbit data is extracted from the following two-line orbital elements,

1  2142U 66031A   17202.89923028 -.00000014 +00000-0 +18180-5 0  9997
2  2142 035.0462 091.7934 0006827 006.8280 353.2500 14.33868993683965
Epoch (UTC): 21 July 2017 21:34:53
Eccentricity: 0.0006827
inclination: 35.0462°
perigee height: 774 km
apogee height: 784 km
right ascension of ascending node: 91.7934°
argument of perigee: 6.8280°
revolutions per day: 14.33868993
mean anomaly at epoch: 353.2500°
orbit number at epoch: 68396

The dashed part of the orbit path shows where the satellite is in the earth's shadow,  

DLR